Location: Treviso
(45.6669°N, 12.2430°E)
Time: 07:07:25
(UTC+02:00)

ISS - Visible Passes

Search period start: 16 July 2018 00:00
Search period end: 26 July 2018 00:00
Orbit: 402 x 408 km, 51.6° (Epoch: 16 July)

Date Brightness Start Highest point End Pass type
(mag) Time Alt. Az. Time Alt. Az. Time Alt. Az.
16 Jul -1.9 00:59:18 24° ENE 00:59:18 24° ENE 01:00:47 10° ENE visible
16 Jul -1.9 02:31:56 14° WNW 02:34:17 30° N 02:37:16 10° NE visible
16 Jul -1.9 04:08:19 10° NW 04:11:21 32° NNE 04:14:23 10° ENE visible
17 Jul -1.0 00:08:36 11° ENE 00:08:36 11° ENE 00:08:40 10° ENE visible
17 Jul -2.2 01:41:12 30° NW 01:42:04 35° NNW 01:45:09 10° NE visible
17 Jul -1.7 03:16:11 10° WNW 03:19:07 28° N 03:22:03 10° ENE visible
17 Jul -3.4 04:52:43 10° WNW 04:56:00 67° NNE 04:59:17 10° ESE visible
18 Jul -2.7 00:50:13 45° N 00:50:13 45° N 00:53:05 10° NE visible
18 Jul -1.6 02:23:58 10° WNW 02:26:51 27° N 02:29:45 10° ENE visible
18 Jul -2.6 04:00:39 10° NW 04:03:52 46° NNE 04:07:03 10° E visible
18 Jul-0.622:25:47ENE22:25:47ENE22:17:26SSWvisible
18 Jul -3.4 23:58:12 57° NNE 23:58:12 57° NNE 00:01:00 10° ENE visible
19 Jul -1.7 01:31:40 10° WNW 01:34:35 29° N 01:37:31 10° ENE visible
19 Jul -2.1 03:08:34 10° NW 03:11:39 35° NNE 03:14:43 10° E visible
19 Jul -3.8 04:45:01 10° WNW 04:48:18 62° SSW 04:51:33 10° SE visible
19 Jul -4.0 23:02:21 10° SW 23:05:37 73° SSE 23:08:53 10° ENE visible
20 Jul -2.0 00:39:18 10° W 00:42:19 33° NNW 00:45:21 10° NE visible
20 Jul -1.8 02:16:26 10° NW 02:19:23 29° N 02:22:20 10° ENE visible
20 Jul -3.7 03:52:54 10° WNW 03:56:12 80° NNE 03:59:30 10° ESE visible
20 Jul -3.5 22:10:28 10° SW 22:13:34 41° SE 22:16:41 10° ENE visible
20 Jul -2.5 23:46:56 10° W 23:50:05 42° NNW 23:53:14 10° NE visible
21 Jul -1.6 01:24:12 10° WNW 01:27:05 27° N 01:29:59 10° ENE visible
21 Jul -3.0 03:00:48 10° WNW 03:04:03 52° NNE 03:07:16 10° E visible
21 Jul -3.0 04:37:30 10° WNW 04:40:24 29° SW 04:43:18 10° SSE visible
21 Jul -3.3 22:54:37 10° WSW 22:57:51 59° NNW 23:01:07 10° ENE visible
22 Jul -1.7 00:31:52 10° WNW 00:34:46 28° N 00:37:41 10° ENE visible
22 Jul -2.3 02:08:42 10° NW 02:11:49 38° NNE 02:14:56 10° E visible
22 Jul -3.7 03:45:11 10° WNW 03:48:23 50° SW 03:51:35 10° SE visible
22 Jul -3.9 22:02:25 10° WSW 22:05:42 87° SSE 22:08:59 10° ENE visible
22 Jul -1.9 23:39:29 10° WNW 23:42:28 31° N 23:45:27 10° NE visible
23 Jul -1.9 01:16:32 10° NW 01:19:31 31° N 01:20:48 23° NE visible
23 Jul -1.2 02:53:00 10° WNW 02:53:17 12° WNW 02:53:17 12° WNW visible
23 Jul -2.3 22:47:04 10° W 22:50:10 38° NNW 22:53:16 10° NE visible
24 Jul -1.7 00:24:18 10° WNW 00:27:12 28° N 00:29:06 17° NE visible
24 Jul -1.3 02:00:51 10° WNW 02:01:40 16° NW 02:01:40 16° NW visible
24 Jul -2.9 21:54:41 10° W 21:57:53 51° NNW 22:01:08 10° ENE visible
24 Jul -1.7 23:31:58 10° WNW 23:34:51 27° N 23:37:44 10° ENE visible
25 Jul -1.9 01:08:42 10° NW 01:10:41 29° NNW 01:10:41 29° NNW visible
25 Jul -1.8 22:39:33 10° WNW 22:42:30 29° N 22:45:27 10° NE visible
